Ash Shahamah, UAE

7:15 PM +04 on April 19, 2018 (GMT +0400)
Ash Shahamah

Weather History for 41217 - May, 2013

Change the Weather History Date:

Friday, May 31, 2013

  Actual Average Record
Temperature  
Mean Temperature 88 °F -  
Max Temperature 97 °F 104 °F - ()
Min Temperature 79 °F 78 °F - ()
Cooling Degree Days 23    
Growing Degree Days 38 (Base 50)    
Moisture  
Dew Point 67 °F    
Average Humidity 49    
Maximum Humidity 70    
Minimum Humidity 20    
Precipitation  
Precipitation 0.00 in 0.00 in - ()
Sea Level Pressure  
Sea Level Pressure 29.59 in    
Wind  
Wind Speed 8 mph ()    
Max Wind Speed 18 mph    
Max Gust Speed -    
Visibility 5.7 miles    
Events      
T = Trace of Precipitation, MM = Missing Value Source: Averaged Metar Reports

Daily Weather History Graph

Daily Weather History Graph

Search for Another Location

Airport or City:

Astronomy

May. 31, 2013 Rise Set
Actual Time 5:32 AM +04 7:05 PM +04
Civil Twilight 5:07 AM +04 7:30 PM +04
Nautical Twilight 4:37 AM +04 8:00 PM +04
Astronomical Twilight 4:05 AM +04 8:32 PM +04
Moon No Moon Rise 11:52 AM +04 (5/31)
Length of Visible Light 14h 23m
Length of Day
13h 32m
Waning Gibbous, 55% of the Moon is Illuminated
May 31
Waning Gibbous
May 31
Last Quarter
Jun 8
New
Jun 16
First Quarter
Jun 23
Full

Hourly Weather History & Observations

Time (+04) Temp. Heat Index Dew Point Humidity Pressure Visibility Wind Dir Wind Speed Gust Speed Precip Events Conditions
12:00 AM 86.0 °F 89.4 °F 68.0 °F 55% 29.62 in - WNW 9.2 mph - N/A   Clear
1:00 AM 84 °F - 68 °F 49% 29.62 in 6 mi NW 8.1 mph - -   Clear
1:00 AM 84.2 °F 87.3 °F 68.0 °F 58% 29.62 in - NW 8.1 mph - N/A   Clear
2:00 AM 84.2 °F 87.3 °F 68.0 °F 58% 29.59 in - NW 5.8 mph - N/A   Clear
3:00 AM 82.4 °F 85.4 °F 68.0 °F 62% 29.59 in - WNW 5.8 mph - N/A   Clear
4:00 AM 83 °F - 67 °F 50% 29.59 in 6 mi West 5.8 mph - -  
4:00 AM 82.4 °F 85.4 °F 68.0 °F 62% 29.59 in - West 5.8 mph - N/A   Clear
5:00 AM 80.6 °F 83.2 °F 68.0 °F 65% 29.59 in - West 6.9 mph - N/A   Clear
6:00 AM 80.6 °F 82.7 °F 66.2 °F 61% 29.59 in 5.0 mi West 4.6 mph - N/A   Unknown
7:00 AM 82 °F - 67 °F 51% 29.64 in 5 mi SSW 4.6 mph - -   Haze
7:00 AM 82.4 °F 84.6 °F 66.2 °F 58% 29.62 in 5.0 mi SSW 4.6 mph - N/A   Unknown
8:00 AM 84.2 °F 86.6 °F 66.2 °F 55% 29.65 in - SSW 3.5 mph - N/A   Clear
9:00 AM 87.8 °F 88.5 °F 62.6 °F 43% 29.65 in - SW 4.6 mph - N/A   Clear
10:00 AM 91 °F - 60 °F 26% 29.64 in 6 mi WSW 6.9 mph - -  
10:00 AM 91.4 °F 91.4 °F 60.8 °F 36% 29.62 in - WSW 6.9 mph - N/A   Clear
11:00 AM 93.2 °F 93.3 °F 60.8 °F 34% 29.62 in - West 9.2 mph - N/A   Clear
12:00 PM 95.0 °F 95.2 °F 60.8 °F 32% 29.59 in - WNW 10.4 mph - N/A   Clear
1:00 PM 96 °F - 59 °F 20% 29.59 in 6 mi West 11.5 mph - -   Clear
1:00 PM 96.8 °F 96.2 °F 59.0 °F 28% 29.59 in - West 11.5 mph - N/A   Clear
2:00 PM 95.0 °F 95.2 °F 60.8 °F 32% 29.56 in - WNW 15.0 mph - N/A   Clear
3:00 PM 95.0 °F 96.0 °F 62.6 °F 34% 29.56 in - WNW 18.4 mph - N/A   Clear
4:00 PM 93 °F - 67 °F 32% 29.56 in 6 mi West 16.1 mph - -   Clear
4:00 PM 93.2 °F 96.2 °F 66.2 °F 41% 29.56 in - West 16.1 mph - N/A   Clear
5:00 PM 91.4 °F 94.0 °F 66.2 °F 43% 29.53 in - West 13.8 mph - N/A   Clear
6:00 PM 91.4 °F 95.4 °F 68.0 °F 46% 29.56 in - WNW 12.7 mph - N/A   Clear
7:00 PM 88 °F - 71 °F 47% 29.57 in 6 mi West 12.7 mph - -   Clear
7:00 PM 87.8 °F 93.8 °F 71.6 °F 58% 29.56 in - West 12.7 mph - N/A   Clear
8:00 PM 86.0 °F 91.8 °F 71.6 °F 62% 29.56 in - West 11.5 mph - N/A   Clear
9:00 PM 86.0 °F 93.4 °F 73.4 °F 66% 29.56 in - WNW 10.4 mph - N/A   Clear
10:00 PM 84 °F - 73 °F 63% 29.58 in 6 mi WNW 10.4 mph - -  
10:00 PM 84.2 °F 90.9 °F 73.4 °F 70% 29.56 in - WNW 10.4 mph - N/A   Clear
11:00 PM 84.2 °F 90.9 °F 73.4 °F 70% 29.56 in - WNW 9.2 mph - N/A   Clear